Location: Downe
(51.3167°N, 0.0500°E)
Time: 16:23:57
(UTC+00:00)

STARLINK-80 - Pass Details

Date: 17 November 2019
Orbit: 491 x 497 km, 53.0° (Epoch: 10 December)

Event Time Altitude Azimuth Distance (km) Brightness Sun altitude
Exits shadow 05:32:15 26° 234° (SW) 1,019 4.6 -16.6°
Maximum altitude 05:34:18 69° 157° (SSE) 538 3.6 -16.2°
Drops below altitude 10° 05:38:08 10° 74° (ENE) 1,704 7.1 -15.7°
Sets 05:40:20 0° 72° (ENE) 2,590 8.2 -15.3°
